EW3937 Weather Reports


Display with metric or nautical units.
time (UTC)temp
F
wind
direction
speed
MPH
gust
MPH
rain 1hr
in
rain 24hr
in
rain mn
in
humidity
%
barometer
mb
20260903065503 54 0 0.0 2.0 0.01 0.09 0.09 87 1010.0
20260903065218 54 0 0.0 2.0 0.01 0.09 0.09 87 1009.9
20260903064503 54 0 0.0 3.0 0.00 0.08 0.08 86 1010.0
20260903064218 54 248 0.0 3.0 0.00 0.08 0.08 86 1010.0
20260903063503 54 249 1.0 4.0 0.00 0.08 0.08 84 1010.0
20260903063003 55 244 2.0 5.0 0.00 0.08 0.08 83 1010.0
20260903062503 55 239 3.0 6.0 0.00 0.08 0.08 82 1010.0
20260903062003 55 230 3.0 8.0 0.00 0.08 0.08 81 1009.9
20260903061503 55 228 3.0 8.0 0.00 0.08 0.08 80 1009.8
20260903061218 55 227 3.0 8.0 0.00 0.08 0.08 80 1009.7
20260903060503 56 225 5.0 9.0 0.00 0.08 0.08 80 1009.7
20260903060003 56 224 5.0 9.0 0.00 0.08 0.08 80 1009.7
20260903055503 56 223 4.0 12.0 0.00 0.08 0.08 80 1009.7
20260903055003 56 221 4.0 12.0 0.00 0.08 0.08 80 1009.6
20260903054716 56 221 3.0 12.0 0.00 0.08 0.08 80 1009.7
20260903054217 55 225 2.0 9.0 0.00 0.08 0.08 80 1009.6
20260903053503 56 234 2.0 7.0 0.00 0.08 0.08 80 1009.6
20260903053003 55 238 1.0 7.0 0.00 0.08 0.08 80 1009.7
20260903052503 55 237 1.0 6.0 0.00 0.08 0.08 81 1009.8
20260903052003 55 236 0.0 4.0 0.00 0.08 0.08 81 1009.9
20260903051503 55 0 0.0 4.0 0.00 0.08 0.08 82 1009.9
20260903051003 55 0 0.0 4.0 0.00 0.08 0.08 82 1009.8
20260903050503 55 0 0.0 2.0 0.00 0.08 0.08 82 1009.8
20260903050003 55 298 0.0 2.0 0.00 0.08 0.08 82 1009.9
20260903045503 55 283 1.0 3.0 0.00 0.08 0.08 82 1009.9
20260903045003 55 245 1.0 3.0 0.00 0.08 0.08 81 1009.9
20260903044503 55 233 1.0 3.0 0.00 0.08 0.08 81 1009.8
20260903044003 55 247 1.0 5.0 0.00 0.08 0.08 81 1009.8
20260903043503 55 259 1.0 5.0 0.00 0.08 0.08 81 1009.8
20260903043003 55 255 1.0 5.0 0.00 0.08 0.08 82 1009.7
20260903042503 55 251 1.0 4.0 0.00 0.08 0.08 82 1009.8
20260903042003 55 258 1.0 6.0 0.00 0.08 0.08 83 1009.7
20260903041503 55 265 1.0 6.0 0.00 0.08 0.08 84 1009.7
20260903041003 54 262 0.0 5.0 0.00 0.08 0.08 86 1009.7
20260903040503 54 0 0.0 3.0 0.00 0.08 0.08 87 1009.6
20260903040003 54 0 0.0 3.0 0.00 0.08 0.08 87 1009.6
20260903035718 54 0 0.0 3.0 0.00 0.08 0.08 87 1009.6
20260903035003 54 224 0.0 1.0 0.00 0.08 0.08 87 1009.5
20260903034503 54 223 1.0 2.0 0.00 0.08 0.08 86 1009.4
20260903034217 55 234 1.0 6.0 0.00 0.08 0.08 84 1009.4
20260903033503 55 235 1.0 6.0 0.00 0.08 0.08 84 1009.3
20260903033003 55 230 2.0 5.0 0.00 0.08 0.08 85 1009.2
20260903032503 55 232 2.0 7.0 0.00 0.08 0.08 85 1009.2
20260903032003 55 235 1.0 7.0 0.00 0.08 0.08 85 1009.1
20260903031717 55 236 1.0 6.0 0.00 0.08 0.08 85 1009.1
20260903031003 55 233 1.0 4.0 0.00 0.08 0.08 85 1009.2
20260903030503 55 235 1.0 5.0 0.00 0.08 0.08 85 1009.1
20260903030003 56 234 1.0 5.0 0.00 0.08 0.08 86 1009.0
20260903025503 56 228 1.0 5.0 0.00 0.08 0.08 86 1009.0
20260903025003 56 230 1.0 5.0 0.01 0.08 0.08 86 1009.0
20260903024717 56 234 1.0 4.0 0.02 0.08 0.08 86 1009.0
20260903024003 56 248 1.0 4.0 0.06 0.08 0.08 85 1009.0
20260903023503 57 249 1.0 7.0 0.06 0.08 0.08 85 1008.9
20260903023218 57 245 2.0 7.0 0.06 0.08 0.08 85 1008.9
20260903022503 57 233 2.0 10.0 0.06 0.08 0.08 83 1008.7
20260903022003 57 233 2.0 10.0 0.06 0.08 0.08 83 1008.9
20260903021503 58 234 2.0 7.0 0.06 0.08 0.08 84 1009.0
20260903021218 58 232 3.0 7.0 0.06 0.08 0.08 84 1009.0
20260903020503 58 222 3.0 9.0 0.06 0.08 0.08 83 1008.9
20260903020003 58 219 5.0 9.0 0.06 0.08 0.08 82 1008.8
20260903015503 59 223 7.0 12.0 0.06 0.08 0.08 80 1008.8
20260903015003 61 218 6.0 15.0 0.05 0.07 0.07 75 1008.7
20260903014503 63 216 4.0 15.0 0.02 0.04 0.04 68 1008.8
20260903014003 65 216 2.0 11.0 0.00 0.02 0.02 59 1008.6
20260903013503 65 212 2.0 3.0 0.00 0.02 0.02 55 1008.2
20260903013003 65 211 1.0 3.0 0.00 0.02 0.02 55 1008.2
20260903012717 65 208 0.0 2.0 0.00 0.02 0.02 55 1008.2
20260903012003 65 0 0.0 1.0 0.00 0.02 0.02 55 1008.1
20260903011503 65 0 0.0 1.0 0.00 0.02 0.02 54 1008.0
20260903011003 66 0 0.0 1.0 0.00 0.02 0.02 56 1007.9
20260903010503 66 0 0.0 1.0 0.00 0.02 0.02 54 1007.9
20260903010003 66 0 0.0 0.0 0.00 0.02 0.02 54 1008.0
20260903005503 66 0 0.0 1.0 0.00 0.02 0.02 54 1007.8
20260903005003 66 0 0.0 1.0 0.00 0.02 0.02 53 1007.7
20260903004503 66 0 0.0 1.0 0.00 0.02 0.02 53 1007.7
20260903004217 67 0 0.0 1.0 0.00 0.02 0.02 53 1007.7
20260903003503 67 0 0.0 1.0 0.00 0.02 0.02 53 1007.8
20260903003218 67 0 0.0 1.0 0.00 0.02 0.02 53 1007.8
20260903002503 68 0 0.0 1.0 0.00 0.02 0.02 52 1007.8
20260903002003 68 0 0.0 1.0 0.00 0.02 0.02 52 1007.7
20260903001503 68 0 0.0 1.0 0.00 0.02 0.02 53 1007.7
20260903001003 68 0 0.0 1.0 0.00 0.02 0.02 53 1007.8
20260903000718 68 0 0.0 1.0 0.00 0.02 0.02 52 1007.8
20260903000003 69 54 0.0 3.0 0.00 0.02 0.02 50 1007.8
20260902235503 70 51 1.0 3.0 0.00 0.02 0.02 49 1007.8
20260902235217 70 56 1.0 4.0 0.00 0.02 0.02 51 1007.8
20260902234503 70 78 1.0 4.0 0.00 0.02 0.02 51 1007.9
20260902234003 70 41 1.0 3.0 0.00 0.02 0.02 50 1007.9
20260902233503 70 52 1.0 2.0 0.00 0.02 0.02 49 1007.9
20260902233217 70 81 1.0 4.0 0.00 0.02 0.02 49 1008.0
20260902232503 70 97 1.0 4.0 0.00 0.02 0.02 50 1008.0
20260902232003 70 70 1.0 2.0 0.00 0.02 0.02 51 1008.0
20260902231503 69 336 1.0 5.0 0.00 0.02 0.02 51 1008.0
20260902231003 69 351 1.0 5.0 0.00 0.02 0.02 50 1008.1
20260902230503 69 80 1.0 5.0 0.00 0.02 0.02 51 1008.2
20260902230003 69 78 1.0 5.0 0.00 0.02 0.02 51 1008.1
20260902225503 69 62 1.0 5.0 0.00 0.02 0.02 53 1008.2
20260902225003 68 15 1.0 5.0 0.00 0.02 0.02 52 1008.2
20260902224503 69 344 1.0 4.0 0.00 0.02 0.02 54 1008.1
20260902224003 69 36 1.0 4.0 0.00 0.02 0.02 52 1008.3
20260902223503 69 39 1.0 4.0 0.00 0.02 0.02 52 1008.3
20260902223003 69 65 1.0 7.0 0.00 0.02 0.02 52 1008.3
20260902222718 69 84 1.0 7.0 0.00 0.02 0.02 53 1008.3
20260902222217 69 20 1.0 7.0 0.00 0.02 0.02 52 1008.2
20260902221503 68 42 1.0 5.0 0.00 0.02 0.02 54 1008.3
20260902221217 68 68 1.0 3.0 0.00 0.02 0.02 52 1008.4
20260902220503 67 16 1.0 2.0 0.00 0.02 0.02 55 1008.5
20260902220003 67 330 1.0 4.0 0.00 0.02 0.02 55 1008.6
20260902215503 67 335 1.0 5.0 0.00 0.02 0.02 55 1008.7
20260902215003 67 8 1.0 5.0 0.00 0.02 0.02 55 1008.8
20260902214503 67 37 1.0 4.0 0.00 0.02 0.02 53 1008.8
20260902214218 67 360 1.0 4.0 0.00 0.02 0.02 54 1008.9
20260902213503 68 358 1.0 3.0 0.00 0.02 0.02 51 1008.9
20260902213003 68 59 1.0 3.0 0.00 0.02 0.02 53 1008.9
20260902212503 68 83 1.0 5.0 0.00 0.02 0.02 54 1008.9
20260902212003 68 58 1.0 5.0 0.00 0.02 0.02 53 1009.1
20260902211503 68 8 1.0 4.0 0.00 0.02 0.02 52 1009.2
20260902211003 68 13 1.0 4.0 0.00 0.02 0.02 53 1009.3
20260902210503 68 42 1.0 4.0 0.00 0.02 0.02 53 1009.3
20260902210003 67 70 1.0 4.0 0.00 0.02 0.02 54 1009.4
20260902205503 67 70 1.0 8.0 0.00 0.02 0.02 53 1009.3
20260902205003 68 73 1.0 8.0 0.00 0.02 0.02 53 1009.3
20260902204503 68 79 2.0 7.0 0.00 0.02 0.02 55 1009.3
20260902204003 67 81 2.0 8.0 0.00 0.02 0.02 52 1009.4
20260902203503 67 81 1.0 9.0 0.00 0.02 0.02 54 1009.5
20260902203218 67 60 1.0 9.0 0.00 0.02 0.02 54 1009.5
20260902202503 67 10 1.0 5.0 0.00 0.02 0.02 56 1009.6
20260902202003 66 42 1.0 4.0 0.00 0.02 0.02 58 1009.6
20260902201503 66 21 1.0 3.0 0.00 0.02 0.02 58 1009.6
20260902201003 66 24 1.0 3.0 0.00 0.02 0.02 57 1009.7
20260902200717 66 9 1.0 4.0 0.00 0.02 0.02 60 1009.9
20260902200003 65 8 1.0 4.0 0.00 0.02 0.02 58 1009.9
20260902195717 65 42 1.0 6.0 0.00 0.02 0.02 56 1009.9
20260902195003 66 43 1.0 6.0 0.00 0.02 0.02 60 1010.0
20260902194503 65 26 1.0 4.0 0.00 0.02 0.02 60 1010.1
20260902194003 65 38 1.0 4.0 0.00 0.02 0.02 60 1010.1
20260902193503 65 42 2.0 6.0 0.00 0.02 0.02 60 1010.3
20260902193003 65 38 2.0 6.0 0.00 0.02 0.02 63 1010.4
20260902192503 64 46 2.0 6.0 0.00 0.02 0.02 61 1010.5
20260902192004 64 56 1.0 6.0 0.00 0.02 0.02 64 1010.5
20260902191503 65 20 1.0 4.0 0.00 0.02 0.02 63 1010.5
20260902191003 64 20 2.0 4.0 0.00 0.02 0.02 68 1010.4
20260902190503 63 43 2.0 5.0 0.00 0.02 0.02 68 1010.5
20260902190003 63 4 1.0 6.0 0.00 0.02 0.02 67 1010.5
20260902185503 63 304 1.0 6.0 0.00 0.02 0.02 68 1010.5
20260902185003 62 332 1.0 5.0 0.00 0.02 0.02 69 1010.5
20260902184503 62 28 1.0 6.0 0.00 0.02 0.02 70 1010.5
20260902184003 62 19 1.0 6.0 0.00 0.02 0.02 70 1010.5
20260902183503 62 19 1.0 4.0 0.00 0.02 0.02 72 1010.6
20260902183003 61 359 1.0 4.0 0.00 0.02 0.02 73 1010.6
20260902182718 61 360 1.0 4.0 0.00 0.02 0.02 72 1010.6
20260902182003 60 16 2.0 4.0 0.00 0.02 0.02 74 1010.9
20260902181503 60 62 2.0 5.0 0.00 0.02 0.02 76 1010.8
20260902181003 60 61 1.0 6.0 0.00 0.02 0.02 77 1010.9
20260902180718 60 53 1.0 6.0 0.00 0.02 0.02 76 1010.9
20260902180005 60 335 1.0 3.0 0.00 0.02 0.02 78 1010.9
20260902175503 59 55 1.0 5.0 0.00 0.02 0.02 78 1011.0
20260902175003 59 64 0.0 5.0 0.00 0.02 0.02 77 1011.0
20260902174503 58 60 0.0 3.0 0.00 0.02 0.02 77 1010.9
20260902174003 58 19 0.0 3.0 0.00 0.02 0.02 79 1010.9
20260902173718 58 347 0.0 3.0 0.00 0.02 0.02 80 1010.9
20260902173003 58 23 0.0 4.0 0.00 0.02 0.02 83 1010.9
20260902172503 57 91 0.0 4.0 0.00 0.02 0.02 84 1010.9
20260902172004 57 0 0.0 4.0 0.00 0.02 0.02 84 1010.8
20260902171503 56 0 0.0 2.0 0.00 0.02 0.02 85 1010.8
20260902171217 56 0 0.0 1.0 0.00 0.02 0.02 86 1010.8
20260902170718 56 0 0.0 1.0 0.00 0.02 0.02 86 1010.7
20260902170003 55 0 0.0 1.0 0.00 0.02 0.02 86 1010.7
20260902165503 55 0 0.0 1.0 0.00 0.02 0.02 86 1010.8
20260902165003 55 0 0.0 1.0 0.00 0.02 0.02 87 1010.6
20260902164503 55 0 0.0 2.0 0.01 0.02 0.02 86 1010.4
20260902164003 54 0 0.0 2.0 0.01 0.02 0.02 86 1010.2
20260902163717 54 77 0.0 1.0 0.01 0.02 0.02 86 1010.2
20260902163003 54 212 1.0 1.0 0.01 0.02 0.02 87 1010.5
20260902162504 54 213 3.0 5.0 0.01 0.02 0.02 87 1010.5
20260902162003 54 215 3.0 9.0 0.02 0.02 0.02 87 1010.4
20260902161503 54 250 2.0 9.0 0.02 0.02 0.02 87 1010.5
20260902161003 54 323 1.0 7.0 0.02 0.02 0.02 86 1009.2
20260902160503 54 309 0.0 5.0 0.02 0.02 0.02 88 1008.9
20260902160004 54 221 0.0 1.0 0.02 0.02 0.02 89 1009.7
20260902155503 54 208 1.0 1.0 0.02 0.02 0.02 88 1009.7
20260902155003 54 208 1.0 3.0 0.02 0.02 0.02 87 1010.2
20260902154717 54 202 1.0 3.0 0.02 0.02 0.02 87 1010.3
20260902154003 54 0 0.0 2.0 0.01 0.01 0.01 87 1010.4
20260902153503 54 151 0.0 1.0 0.01 0.01 0.01 87 1009.9
20260902153218 54 151 0.0 1.0 0.01 0.01 0.01 86 1009.7
20260902152503 54 166 1.0 3.0 0.01 0.01 0.01 86 1010.5
20260902152218 54 172 1.0 4.0 0.00 0.00 0.00 85 1010.4
20260902151717 54 172 0.0 4.0 0.00 0.00 0.00 85 1010.5
20260902151003 54 0 0.0 0.0 0.00 0.00 0.00 82 1010.1
20260902150717 55 0 0.0 0.0 0.00 0.00 0.00 81 1010.1
20260902150003 55 0 0.0 0.0 0.00 0.00 0.00 78 1010.0
20260902145503 55 0 0.0 0.0 0.00 0.00 0.00 77 1010.0
20260902145004 56 221 1.0 1.0 0.00 0.00 0.00 76 1010.0
20260902144503 56 221 1.0 1.0 0.00 0.00 0.00 74 1010.1
20260902144003 54 281 1.0 2.0 0.00 0.00 0.00 67 1010.0
20260902143503 54 281 1.0 2.0 0.00 0.00 0.00 67 1010.0
20260902143003 54 281 1.0 2.0 0.00 0.00 0.00 67 1010.0
20260902142503 54 281 1.0 2.0 0.00 0.00 0.00 67 1010.0
20260902142003 54 281 1.0 2.0 0.00 0.00 0.00 67 1009.6
20260902141503 54 281 1.0 2.0 0.00 0.00 0.00 67 1009.6
20260902141003 54 281 1.0 2.0 0.00 0.00 0.00 67 1009.7
20260902140503 54 281 1.0 2.0 0.00 0.00 0.00 67 1009.6
20260902140003 54 281 1.0 2.0 0.00 0.00 0.00 67 1009.6
20260902135503 54 281 1.0 2.0 0.00 0.00 0.00 67 1009.3
20260902135003 54 281 1.0 2.0 0.00 0.00 0.00 67 1009.3
20260902134503 54 281 1.0 2.0 0.00 0.00 0.00 67 1009.3
20260902134217 54 281 1.0 2.0 0.00 0.00 0.00 67 1009.2
20260902133503 54 281 1.0 2.0 0.00 0.00 0.00 67 1008.9
20260902133003 54 281 1.0 2.0 0.00 0.00 0.00 67 1009.0
20260902132503 54 281 1.0 2.0 0.00 0.00 0.00 67 1009.0
20260902132003 54 281 1.0 2.0 0.00 0.00 0.00 67 1008.9
20260902131503 54 281 1.0 2.0 0.00 0.00 0.00 67 1008.9
20260902131003 54 281 1.0 2.0 0.00 0.00 0.00 67 1008.7
20260902130503 54 281 1.0 2.0 0.00 0.00 0.00 67 1008.6
20260902130003 54 281 1.0 2.0 0.00 0.00 0.00 67 1008.6
20260902125503 54 281 1.0 2.0 0.00 0.00 0.00 67 1008.5
20260902125003 54 281 1.0 2.0 0.00 0.00 0.00 67 1008.2
20260902124503 54 281 1.0 2.0 0.00 0.00 0.00 67 1008.2
20260902124003 54 281 1.0 2.0 0.00 0.00 0.00 67 1008.1
20260902123503 54 281 1.0 2.0 0.00 0.00 0.00 67 1008.2
20260902123003 54 281 1.0 2.0 0.00 0.00 0.00 67 1008.3
20260902122503 54 281 1.0 2.0 0.00 0.00 0.00 67 1008.3
20260902122003 54 281 1.0 2.0 0.00 0.00 0.00 67 1008.4
20260902121503 54 282 1.0 2.0 0.00 0.00 0.00 67 1008.5
20260902121003 54 276 1.0 3.0 0.00 0.00 0.00 67 1008.5
20260902120503 54 274 0.0 4.0 0.00 0.00 0.00 67 1008.5
20260902120003 55 276 0.0 5.0 0.00 0.00 0.00 68 1008.5
20260902115503 54 0 0.0 5.0 0.00 0.00 0.00 69 1008.6
20260902115003 53 0 0.0 3.0 0.00 0.00 0.00 70 1008.6
20260902114503 52 0 0.0 3.0 0.00 0.00 0.00 70 1008.5
20260902114003 52 0 0.0 3.0 0.00 0.00 0.00 72 1008.5
20260902113503 52 0 0.0 2.0 0.00 0.00 0.00 71 1008.4
20260902113217 52 0 0.0 2.0 0.00 0.00 0.00 72 1008.4
20260902112718 51 0 0.0 1.0 0.00 0.00 0.00 72 1008.4
20260902112217 51 0 0.0 1.0 0.00 0.00 0.00 71 1008.3
20260902111717 51 0 0.0 1.0 0.00 0.00 0.00 71 1008.2
20260902111003 52 0 0.0 1.0 0.00 0.00 0.00 70 1008.2
20260902110503 52 0 0.0 1.0 0.00 0.00 0.00 70 1008.0
20260902110005 52 0 0.0 1.0 0.00 0.00 0.00 70 1007.9
20260902105503 52 0 0.0 2.0 0.00 0.00 0.00 70 1007.9
20260902105216 51 0 0.0 2.0 0.00 0.00 0.00 71 1007.8
20260902104717 51 0 0.0 1.0 0.00 0.00 0.00 71 1007.9
20260902104003 51 0 0.0 1.0 0.00 0.00 0.00 71 1008.0
20260902103503 51 0 0.0 1.0 0.00 0.00 0.00 71 1008.0
20260902103003 51 239 0.0 1.0 0.00 0.00 0.00 71 1008.2
20260902102503 51 239 1.0 1.0 0.00 0.00 0.00 71 1008.3
20260902102003 50 239 1.0 3.0 0.00 0.00 0.00 72 1008.4
20260902101717 50 239 0.0 3.0 0.00 0.00 0.00 72 1008.4
20260902101003 50 239 0.0 2.0 0.00 0.00 0.00 72 1008.0
20260902100717 50 239 0.0 2.0 0.00 0.00 0.00 73 1008.0
20260902100003 50 239 1.0 2.0 0.00 0.00 0.00 74 1008.2
20260902095503 49 239 0.0 2.0 0.00 0.00 0.00 73 1008.2
20260902095218 50 0 0.0 2.0 0.00 0.00 0.00 73 1008.2
20260902094503 50 0 0.0 2.0 0.00 0.00 0.00 72 1008.2
20260902094003 50 0 0.0 2.0 0.00 0.00 0.00 70 1008.1
20260902093503 51 0 0.0 2.0 0.00 0.00 0.00 72 1008.1
20260902093218 51 0 0.0 2.0 0.00 0.00 0.00 72 1008.1
20260902092717 50 0 0.0 2.0 0.00 0.00 0.00 73 1008.1
20260902092003 50 0 0.0 2.0 0.00 0.00 0.00 71 1008.4
20260902091503 52 240 0.0 2.0 0.00 0.00 0.00 67 1008.3
20260902091003 53 240 1.0 1.0 0.00 0.00 0.00 66 1008.2
20260902090503 54 240 1.0 2.0 0.00 0.00 0.00 68 1008.2
20260902090004 54 241 0.0 2.0 0.00 0.00 0.00 68 1008.5
20260902085503 53 0 0.0 2.0 0.00 0.00 0.00 69 1008.5
20260902085003 53 0 0.0 1.0 0.00 0.00 0.00 69 1008.2
20260902084717 53 0 0.0 1.0 0.00 0.00 0.00 68 1008.0
20260902084003 53 0 0.0 1.0 0.00 0.00 0.00 69 1008.2
20260902083716 54 0 0.0 1.0 0.00 0.00 0.00 67 1008.2
20260902083003 55 0 0.0 0.0 0.00 0.00 0.00 66 1008.2
20260902082503 56 0 0.0 1.0 0.00 0.00 0.00 66 1008.0
20260902082003 56 0 0.0 1.0 0.00 0.00 0.00 66 1008.1
20260902081718 56 0 0.0 1.0 0.00 0.00 0.00 66 1008.1
20260902081003 56 0 0.0 1.0 0.00 0.00 0.00 66 1008.1
20260902080503 56 0 0.0 1.0 0.00 0.00 0.00 67 1008.1
20260902080003 56 0 0.0 2.0 0.00 0.00 0.00 67 1008.0
20260902075718 57 0 0.0 2.0 0.00 0.00 0.00 67 1008.1
20260902075003 57 0 0.0 2.0 0.00 0.00 0.00 68 1008.0
20260902074503 57 0 0.0 0.0 0.00 0.00 0.00 67 1008.1
20260902074003 58 241 1.0 2.0 0.00 0.00 0.00 67 1008.1
20260902073503 58 236 1.0 3.0 0.00 0.00 0.00 67 1008.1
20260902073217 58 236 0.0 3.0 0.00 0.00 0.00 68 1008.0
20260902072503 58 236 0.0 3.0 0.00 0.00 0.00 69 1008.0
20260902072003 57 228 1.0 3.0 0.00 0.00 0.00 70 1008.0
20260902071503 57 224 1.0 6.0 0.00 0.00 0.00 71 1008.0
20260902071003 56 218 1.0 6.0 0.00 0.00 0.00 73 1008.1
20260902070503 54 193 0.0 6.0 0.00 0.00 0.00 78 1008.1
20260902070006 54 151 0.0 4.0 0.00 0.00 0.00 76 1008.0